Date String (YYYY-MM-DD hh:mm:ss) UTC,Instrument flags,absolute air pressure of the measurement (hPa),sample flow rate (lpm),inlet stack bypass flow (lpm),air temperature of the measurement (°C),ambient temperature measured by the external sensor (°C),aerosol sample conditioner tube jacket temperature (°C),OPC LED temperature (°C),internal box temperature (°C),relative humidity of the measurement (%),span deviation,mass concentration of particles derived from Lorenz-Mie calculation of OPC scattering (μg/m³),mass concentration of particles derived from Lorenz-Mie calculation of OPC scattering (μg/m³),mass concentration of particles derived from Lorenz-Mie calculation of OPC scattering (μg/m³)
DateTimeUTC,F1_M11,P_M11,Q1_M11,Q2_M11,T1_M11,T2_M11,T3_M11,T4_M11,T5_M11,U1_M11,ZSPAN_M11,X0_M11,X2_M11,X1_M11
2023-12-03 16:00:00,SystemResetWarning,0823.9,5.01,000.00,018.8,018.1,000.0,027.2,020.0,25.6,0000.0,0002.60,0000.52,0000.23
2023-12-03 16:01:00,SystemResetWarning,0824.0,5.00,000.00,018.8,018.1,000.0,027.2,020.0,25.6,0000.0,0002.59,0000.50,0000.24
2023-12-03 16:02:00,SystemResetWarning,0824.0,5.00,000.00,018.8,018.0,000.0,027.2,020.0,25.6,0000.0,0002.56,0000.53,0000.25
2023-12-03 16:03:00,SystemResetWarning,0824.0,5.00,000.00,018.8,018.0,000.0,027.2,020.0,25.7,0000.0,0002.58,0000.55,0000.26
2023-12-03 16:04:00,SystemResetWarning,0824.0,5.00,000.00,018.8,018.0,000.0,027.2,020.0,25.7,0000.0,0002.51,0000.56,0000.27
2023-12-03 16:05:00,SystemResetWarning,0823.9,5.00,000.00,018.8,018.0,000.0,027.2,020.0,25.6,0000.0,0002.44,0000.57,0000.28
2023-12-03 16:06:00,SystemResetWarning,0823.9,4.99,000.00,018.8,018.0,000.0,027.2,020.0,25.6,0000.0,0001.73,0000.60,0000.30
2023-12-03 16:07:00,SystemResetWarning,0824.0,5.01,000.00,018.8,018.0,000.0,027.2,020.0,25.5,0000.0,0001.64,0000.61,0000.32
2023-12-03 16:08:00,SystemResetWarning,0823.9,5.00,000.00,018.8,018.0,000.0,027.2,020.0,25.4,0000.0,0001.49,0000.62,0000.35
2023-12-03 16:09:00,SystemResetWarning,0824.0,5.00,000.00,018.8,018.1,000.0,027.2,020.0,25.2,0000.0,0001.35,0000.63,0000.37
2023-12-03 16:10:00,SystemResetWarning,0824.0,5.00,000.00,018.8,018.1,000.0,027.2,020.0,25.2,0000.0,0001.24,0000.67,0000.39
2023-12-03 16:11:00,SystemResetWarning,0824.0,4.99,000.00,018.8,018.1,000.0,027.2,020.1,25.0,0000.0,0001.32,0000.71,0000.42
2023-12-03 16:12:00,SystemResetWarning,0824.0,5.00,000.00,018.8,018.1,000.0,027.2,020.0,25.1,0000.0,0001.33,0000.72,0000.43
2023-12-03 16:13:00,SystemResetWarning,0824.1,5.00,000.00,018.8,018.0,000.0,027.2,020.0,25.2,0000.0,0002.57,0000.76,0000.45
2023-12-03 16:14:00,SystemResetWarning,0824.1,5.00,000.00,018.8,018.0,000.0,027.2,020.0,25.3,0000.0,0002.69,0000.79,0000.45
2023-12-03 16:15:00,SystemResetWarning,0824.0,5.00,000.00,018.8,018.0,000.0,027.2,020.0,25.3,0000.0,0002.78,0000.79,0000.46
2023-12-03 16:16:00,SystemResetWarning,0824.0,5.00,000.00,018.8,018.0,000.0,027.2,020.0,25.3,0000.0,0002.80,0000.80,0000.46
2023-12-03 16:17:00,SystemResetWarning,0824.1,5.00,000.00,018.8,018.0,000.0,027.2,020.0,25.3,0000.0,0002.84,0000.82,0000.45
2023-12-03 16:18:00,SystemResetWarning,0824.1,4.99,000.00,018.8,018.0,000.0,027.2,020.0,25.4,0000.0,0003.15,0000.85,0000.46
2023-12-03 16:19:00,SystemResetWarning,0824.2,5.00,000.00,018.8,017.9,000.0,027.2,020.0,25.2,0000.0,0003.57,0000.85,0000.44
2023-12-03 16:20:00,SystemResetWarning,0824.2,5.00,000.00,018.8,017.9,000.0,027.2,020.0,25.2,0000.0,0003.57,0000.84,0000.44
2023-12-03 16:21:00,SystemResetWarning,0824.2,5.00,000.00,018.8,017.9,000.0,027.2,020.0,25.1,0000.0,0003.52,0000.81,0000.43
2023-12-03 16:22:00,SystemResetWarning,0824.2,5.01,000.00,018.8,017.9,000.0,027.2,020.0,25.1,0000.0,0003.46,0000.79,0000.42
2023-12-03 16:23:00,SystemResetWarning,0824.2,5.01,000.00,018.8,017.9,000.0,027.2,020.0,25.2,0000.0,0003.48,0000.81,0000.44
2023-12-03 16:24:00,SystemResetWarning,0824.3,5.00,000.00,018.8,017.9,000.0,027.2,020.0,25.2,0000.0,0002.55,0000.81,0000.44
2023-12-03 16:25:00,SystemResetWarning,0824.3,5.00,000.00,018.8,018.0,000.0,027.2,020.0,25.0,0000.0,0002.19,0000.77,0000.44
2023-12-03 16:26:00,SystemResetWarning,0824.3,4.99,000.00,018.8,018.0,000.0,027.2,020.0,24.9,0000.0,0002.00,0000.73,0000.44
2023-12-03 16:27:00,SystemResetWarning,0824.3,4.99,000.00,018.8,018.0,000.0,027.2,020.0,24.9,0000.0,0001.90,0000.69,0000.44
2023-12-03 16:28:00,SystemResetWarning,0824.3,5.01,000.00,018.8,018.0,000.0,027.2,020.0,25.1,0000.0,0001.93,0000.69,0000.45
2023-12-03 16:29:00,SystemResetWarning,0824.3,5.01,000.00,018.8,018.0,000.0,027.2,020.0,25.2,0000.0,0001.83,0000.68,0000.46
2023-12-03 16:30:00,SystemResetWarning,0824.3,4.99,000.00,018.8,018.0,000.0,027.2,020.0,25.1,0000.0,0001.72,0000.68,0000.47
2023-12-03 16:31:00,SystemResetWarning,0824.4,5.00,000.00,018.8,018.0,000.0,027.2,020.0,25.2,0000.0,0002.37,0000.68,0000.48
2023-12-03 16:32:00,SystemResetWarning,0824.4,5.00,000.00,018.8,018.0,000.0,027.2,020.0,25.2,0000.0,0002.33,0000.67,0000.49
2023-12-03 16:33:00,SystemResetWarning,0824.4,5.00,000.00,018.8,018.0,000.0,027.2,020.0,25.3,0000.0,0002.46,0000.71,0000.49
2023-12-03 16:34:00,SystemResetWarning,0824.5,5.00,000.00,018.8,018.0,000.0,027.2,020.0,25.4,0000.0,0002.49,0000.72,0000.49
2023-12-03 16:35:00,SystemResetWarning,0824.6,5.00,000.00,018.8,018.0,000.0,027.2,020.0,25.6,0000.0,0002.45,0000.71,0000.50
2023-12-03 16:36:00,SystemResetWarning,0824.7,5.00,000.00,018.8,018.0,000.0,027.2,020.0,25.6,0000.0,0002.53,0000.74,0000.51
2023-12-03 16:37:00,SystemResetWarning,0824.6,5.00,000.00,018.8,018.1,000.0,027.2,020.0,25.7,0000.0,0002.65,0000.80,0000.54
2023-12-03 16:38:00,SystemResetWarning,0824.6,5.00,000.00,018.8,018.1,000.0,027.2,020.0,25.7,0000.0,0002.76,0000.86,0000.55
2023-12-03 16:39:00,SystemResetWarning,0824.6,5.00,000.00,018.8,018.1,000.0,027.2,020.1,25.8,0000.0,0002.80,0000.90,0000.57
2023-12-03 16:40:00,SystemResetWarning,0824.7,5.00,000.00,018.8,018.1,000.0,027.2,020.1,25.8,0000.0,0002.74,0000.93,0000.59
2023-12-03 16:41:00,SystemResetWarning,0824.7,5.00,000.00,018.8,018.1,000.0,027.2,020.1,25.9,0000.0,0002.74,0000.98,0000.62
2023-12-03 16:42:00,SystemResetWarning,0824.7,5.00,000.00,018.9,018.1,000.0,027.2,020.1,25.9,0000.0,0001.78,0001.01,0000.65
2023-12-03 16:43:00,SystemResetWarning,0824.7,5.00,000.00,018.9,018.1,000.0,027.2,020.1,25.9,0000.0,0002.36,0001.03,0000.68
2023-12-03 16:44:00,SystemResetWarning,0824.7,5.00,000.00,018.9,018.1,000.0,027.2,020.1,25.8,0000.0,0003.46,0001.09,0000.73
2023-12-03 16:45:00,SystemResetWarning,0824.7,5.00,000.00,018.9,018.1,000.0,027.2,020.1,25.7,0000.0,0003.60,0001.14,0000.77
2023-12-03 16:46:00,SystemResetWarning,0824.8,5.00,000.00,018.9,018.1,000.0,027.2,020.1,25.7,0000.0,0003.75,0001.21,0000.81
2023-12-03 16:47:00,SystemResetWarning,0824.8,5.00,000.00,018.9,018.1,000.0,027.2,020.1,25.7,0000.0,0004.10,0001.28,0000.85
2023-12-03 16:48:00,SystemResetWarning,0824.7,5.00,000.00,018.9,018.1,000.0,027.2,020.1,25.6,0000.0,0004.52,0001.35,0000.90
2023-12-03 16:49:00,SystemResetWarning,0824.8,5.00,000.00,018.9,018.2,000.0,027.2,020.1,25.6,0000.0,0004.77,0001.40,0000.96
2023-12-03 16:50:00,SystemResetWarning,0824.7,5.00,000.00,018.9,018.2,000.0,027.2,020.1,25.4,0000.0,0005.06,0001.47,0001.01
2023-12-03 16:51:00,SystemResetWarning,0824.7,5.00,000.00,018.9,018.2,000.0,027.2,020.1,25.2,0000.0,0005.26,0001.54,0001.06
2023-12-03 16:52:00,SystemResetWarning,0824.8,5.00,000.00,018.9,018.2,000.0,027.2,020.1,25.2,0000.0,0005.33,0001.59,0001.11
2023-12-03 16:53:00,SystemResetWarning,0824.9,5.00,000.00,018.9,018.2,000.0,027.2,020.1,25.2,0000.0,0005.45,0001.67,0001.16
2023-12-03 16:54:00,SystemResetWarning,0824.8,5.00,000.00,018.9,018.2,000.0,027.2,020.2,25.0,0000.0,0005.06,0001.75,0001.21
2023-12-03 16:55:00,SystemResetWarning,0824.8,5.00,000.00,018.9,018.2,000.0,027.2,020.2,24.9,0000.0,0004.00,0001.76,0001.23
2023-12-03 16:56:00,SystemResetWarning,0824.9,5.00,000.00,018.9,018.2,000.0,027.2,020.2,24.9,0000.0,0004.14,0001.80,0001.25
2023-12-03 16:57:00,SystemResetWarning,0824.9,5.00,000.00,019.0,018.2,000.0,027.2,020.1,24.9,0000.0,0004.75,0001.87,0001.27
2023-12-03 16:58:00,SystemResetWarning,0824.9,5.00,000.00,019.0,018.2,000.0,027.2,020.2,24.9,0000.0,0005.57,0001.88,0001.28
2023-12-03 16:59:00,SystemResetWarning,0824.9,5.00,000.00,019.0,018.2,000.0,027.2,020.2,24.8,0000.0,0006.01,0001.83,0001.28
